• In Romania
  • List of Countries
  • For 7 days
  • Water Temperature
  • Satellite Maps
  • Weather Map
  • Weather Widgets
  • user-avatar
    Login

    Hourly Weather Spring Garden

    Today, 25 June, Monday

    Time Temperature Precipitation Wind Pressure Humidity
    00:00 +18°C° 0 mm 1 mps 646 mmHg 59%
    01:00 +18°C° 0 mm 1 mps 646 mmHg 58%
    02:00 +16°C° 0 mm 1 mps 646 mmHg 57%
    03:00 +16°C° 0 mm 1 mps 646 mmHg 56%
    04:00 +16°C° 0 mm 1 mps 646 mmHg 56%
    05:00 +19°C° 0 mm 1 mps 647 mmHg 50%
    06:00 +21°C° 0 mm 1 mps 648 mmHg 45%
    07:00 +24°C° 0 mm 1 mps 648 mmHg 40%
    08:00 +26°C° 0 mm 2 mps 649 mmHg 34%
    09:00 +28°C° 0 mm 2 mps 649 mmHg 28%
    10:00 +30°C° 0 mm 3 mps 650 mmHg 22%
    11:00 +30°C° 0 mm 4 mps 650 mmHg 21%
    12:00 +32°C° 0 mm 4 mps 649 mmHg 20%
    13:00 +32°C° 0 mm 5 mps 649 mmHg 19%
    14:00 +32°C° 0 mm 5 mps 649 mmHg 20%
    15:00 +30°C° 0 mm 5 mps 649 mmHg 21%
    16:00 +30°C° 0 mm 5 mps 648 mmHg 22%
    17:00 +28°C° 0 mm 4 mps 648 mmHg 29%
    18:00 +25°C° 0 mm 3 mps 648 mmHg 37%
    19:00 +23°C° 0 mm 2 mps 647 mmHg 44%
    20:00 +21°C° 0 mm 1 mps 647 mmHg 48%
    21:00 +19°C° 0 mm 1 mps 647 mmHg 52%
    22:00 +16°C° 0 mm 1 mps 647 mmHg 57%
    23:00 +16°C° 0 mm 1 mps 647 mmHg 55%

    Tomorrow, 26 June, Tuesday

    Time Temperature Precipitation Wind Pressure Humidity
    00:00 +16°C° 0 mm 1 mps 647 mmHg 54%
    01:00 +15°C° 0 mm 1 mps 647 mmHg 53%
    02:00 +15°C° 0 mm 1 mps 647 mmHg 52%
    03:00 +14°C° 0 mm 1 mps 647 mmHg 51%
    04:00 +14°C° 0 mm 1 mps 647 mmHg 50%
    05:00 +16°C° 0 mm 1 mps 647 mmHg 45%
    06:00 +20°C° 0 mm 1 mps 648 mmHg 39%
    07:00 +22°C° 0 mm 1 mps 649 mmHg 34%
    08:00 +25°C° 0 mm 1 mps 649 mmHg 28%
    09:00 +27°C° 0 mm 2 mps 650 mmHg 21%
    10:00 +29°C° 0 mm 3 mps 650 mmHg 15%
    11:00 +30°C° 0 mm 3 mps 650 mmHg 14%
    12:00 +32°C° 0 mm 4 mps 650 mmHg 13%
    13:00 +33°C° 0 mm 4 mps 650 mmHg 12%
    14:00 +32°C° 0 mm 4 mps 649 mmHg 12%
    15:00 +32°C° 0 mm 4 mps 649 mmHg 13%
    16:00 +30°C° 0 mm 4 mps 649 mmHg 13%
    17:00 +28°C° 0 mm 3 mps 648 mmHg 20%
    18:00 +25°C° 0 mm 2 mps 647 mmHg 26%
    19:00 +23°C° 0 mm 2 mps 647 mmHg 32%
    20:00 +21°C° 0 mm 1 mps 647 mmHg 34%
    21:00 +19°C° 0 mm 1 mps 647 mmHg 36%
    22:00 +16°C° 0 mm 1 mps 646 mmHg 38%
    23:00 +16°C° 0 mm 1 mps 646 mmHg 37%

    Day after tomorrow, 27 June, Wednesday

    Time Temperature Precipitation Wind Pressure Humidity
    00:00 +15°C° 0 mm 1 mps 646 mmHg 37%
    01:00 +15°C° 0 mm 1 mps 646 mmHg 36%
    02:00 +14°C° 0 mm 1 mps 646 mmHg 35%
    03:00 +14°C° 0 mm 1 mps 646 mmHg 35%
    04:00 +14°C° 0 mm 1 mps 645 mmHg 34%
    05:00 +16°C° 0 mm 1 mps 646 mmHg 31%
    06:00 +20°C° 0 mm 1 mps 647 mmHg 29%
    07:00 +22°C° 0 mm 1 mps 648 mmHg 27%
    08:00 +24°C° 0 mm 1 mps 648 mmHg 22%
    09:00 +27°C° 0 mm 2 mps 649 mmHg 18%
    10:00 +29°C° 0 mm 3 mps 649 mmHg 14%
    11:00 +29°C° 0 mm 4 mps 649 mmHg 13%
    12:00 +30°C° 0 mm 4 mps 649 mmHg 13%
    13:00 +32°C° 0 mm 5 mps 648 mmHg 13%
    14:00 +30°C° 0 mm 5 mps 648 mmHg 13%
    15:00 +30°C° 0 mm 5 mps 647 mmHg 14%
    16:00 +29°C° 0 mm 5 mps 647 mmHg 15%
    17:00 +27°C° 0 mm 4 mps 646 mmHg 21%
    18:00 +24°C° 0 mm 3 mps 646 mmHg 27%
    19:00 +21°C° 0 mm 2 mps 645 mmHg 33%
    20:00 +19°C° 0 mm 2 mps 645 mmHg 36%
    21:00 +17°C° 0 mm 2 mps 645 mmHg 39%
    22:00 +15°C° 0 mm 1 mps 645 mmHg 41%
    23:00 +15°C° 0 mm 1 mps 645 mmHg 41%

    28 June, Thursday

    Time Temperature Precipitation Wind Pressure Humidity
    00:00 +15°C° 0 mm 1 mps 645 mmHg 40%
    01:00 +14°C° 0 mm 1 mps 645 mmHg 40%
    02:00 +14°C° 0 mm 1 mps 644 mmHg 41%
    03:00 +13°C° 0 mm 1 mps 644 mmHg 41%
    04:00 +13°C° 0 mm 1 mps 644 mmHg 42%
    05:00 +15°C° 0 mm 1 mps 645 mmHg 39%
    06:00 +18°C° 0 mm 1 mps 645 mmHg 35%
    07:00 +19°C° 0 mm 0 mps 646 mmHg 32%
    08:00 +22°C° 0 mm 1 mps 646 mmHg 28%
    09:00 +24°C° 0 mm 2 mps 647 mmHg 25%
    10:00 +26°C° 0 mm 2 mps 647 mmHg 21%
    11:00 +26°C° 0 mm 3 mps 647 mmHg 22%
    12:00 +26°C° 0 mm 3 mps 647 mmHg 23%
    13:00 +27°C° 0 mm 4 mps 646 mmHg 24%
    14:00 +26°C° 0 mm 4 mps 646 mmHg 26%
    15:00 +26°C° 0 mm 4 mps 646 mmHg 28%
    16:00 +26°C° 0 mm 4 mps 646 mmHg 29%
    17:00 +24°C° 0 mm 3 mps 646 mmHg 35%
    18:00 +23°C° 0 mm 2 mps 645 mmHg 41%
    19:00 +20°C° 0 mm 2 mps 645 mmHg 47%
    20:00 +18°C° 0 mm 2 mps 645 mmHg 52%
    21:00 +18°C° 0 mm 1 mps 645 mmHg 57%
    22:00 +15°C° 0 mm 1 mps 645 mmHg 61%
    23:00 +14°C° 0 mm 1 mps 645 mmHg 63%

    29 June, Friday

    Time Temperature Precipitation Wind Pressure Humidity
    00:00 +14°C° 0 mm 1 mps 645 mmHg 64%
    01:00 +13°C° 0 mm 1 mps 645 mmHg 66%
    02:00 +12°C° 0 mm 1 mps 645 mmHg 67%
    03:00 +12°C° 0 mm 2 mps 645 mmHg 68%
    04:00 +10°C° 0 mm 2 mps 645 mmHg 69%
    05:00 +13°C° 0 mm 2 mps 645 mmHg 63%
    06:00 +15°C° 0 mm 2 mps 646 mmHg 57%
    07:00 +17°C° 0 mm 2 mps 647 mmHg 51%
    08:00 +19°C° 0 mm 2 mps 648 mmHg 43%
    09:00 +23°C° 0 mm 2 mps 648 mmHg 35%
    10:00 +25°C° 0 mm 2 mps 649 mmHg 28%
    11:00 +26°C° 0 mm 2 mps 649 mmHg 25%
    12:00 +27°C° 0 mm 3 mps 648 mmHg 22%
    13:00 +28°C° 0 mm 3 mps 648 mmHg 18%
    14:00 +28°C° 0 mm 3 mps 648 mmHg 18%
    15:00 +28°C° 0 mm 3 mps 648 mmHg 18%
    16:00 +28°C° 0 mm 4 mps 648 mmHg 18%
    17:00 +26°C° 0 mm 3 mps 647 mmHg 23%
    18:00 +24°C° 0 mm 3 mps 647 mmHg 29%
    19:00 +21°C° 0 mm 3 mps 646 mmHg 35%
    20:00 +20°C° 0 mm 3 mps 646 mmHg 38%
    21:00 +18°C° 0 mm 3 mps 647 mmHg 41%
    22:00 +16°C° 0 mm 2 mps 647 mmHg 44%
    23:00 +16°C° 0 mm 2 mps 646 mmHg 46%

    30 June, Saturday

    Time Temperature Precipitation Wind Pressure Humidity
    00:00 +15°C° 0 mm 2 mps 646 mmHg 48%
    01:00 +15°C° 0 mm 2 mps 646 mmHg 50%
    02:00 +14°C° 0 mm 2 mps 646 mmHg 52%
    03:00 +14°C° 0 mm 2 mps 646 mmHg 53%
    04:00 +12°C° 0 mm 3 mps 646 mmHg 55%
    05:00 +14°C° 0 mm 3 mps 647 mmHg 50%
    06:00 +17°C° 0 mm 3 mps 648 mmHg 46%
    07:00 +19°C° 0 mm 3 mps 649 mmHg 41%
    08:00 +21°C° 0 mm 3 mps 649 mmHg 36%
    09:00 +23°C° 0 mm 4 mps 650 mmHg 30%
    10:00 +26°C° 0 mm 4 mps 650 mmHg 24%
    11:00 +27°C° 0 mm 4 mps 650 mmHg 22%
    12:00 +28°C° 0 mm 4 mps 650 mmHg 20%
    13:00 +29°C° 0 mm 4 mps 650 mmHg 17%
    14:00 +30°C° 0 mm 4 mps 650 mmHg 17%
    15:00 +30°C° 0 mm 4 mps 650 mmHg 17%
    16:00 +30°C° 0 mm 4 mps 649 mmHg 16%
    17:00 +28°C° 0 mm 3 mps 649 mmHg 20%
    18:00 +26°C° 0 mm 3 mps 648 mmHg 25%
    19:00 +24°C° 0 mm 2 mps 648 mmHg 29%
    20:00 +23°C° 0 mm 2 mps 648 mmHg 30%
    21:00 +20°C° 0 mm 2 mps 648 mmHg 31%
    22:00 +19°C° 0 mm 2 mps 648 mmHg 33%
    23:00 +18°C° 0 mm 2 mps 648 mmHg 34%
    Show more